Location: Unspecified
(0.0000°N, 0.0000°E)
Time: 22:20:52
(UTC+00:00)

CHEOPS - Pass Details

Date: 13 June 2023
Orbit: 695 x 708 km, 98.2° (Epoch: 01 October)

Event Time Altitude Azimuth Distance (km) Brightness Sun altitude
Rises 18:27:57 0° 356° (N) 3,087 ? -6.4°
Reaches altitude 10° 18:30:21 10° 348° (NNW) 2,169 ? -6.9°
Maximum altitude 18:34:40 35° 282° (WNW) 1,128 ? -7.9°
Drops below altitude 10° 18:38:57 10° 217° (SW) 2,152 ? -8.9°
Sets 18:41:25 0° 208° (SSW) 3,089 ? -9.5°
